Time,TemperatureF,DewpointF,PressureIn,WindDirection,WindDirectionDegrees,WindSpeedMPH,WindSpeedGustMPH,Humidity,HourlyPrecipIn,Conditions,Clouds,dailyrainin,SoftwareType,DateUTC
2013-03-30 00:02:00,37.0,28.0,29.91,North,355,0.0,-999.0,71,-99.99,,,-99.99,,2013-03-30 04:02:00,
2013-03-30 00:13:00,37.0,28.0,29.91,North,355,0.0,-999.0,71,-99.99,,,-99.99,,2013-03-30 04:13:00,
2013-03-30 00:23:00,37.0,29.0,29.91,North,355,0.0,-999.0,72,-99.99,,,-99.99,,2013-03-30 04:23:00,
2013-03-30 00:33:00,36.0,28.0,29.91,North,355,0.0,-999.0,73,-99.99,,,-99.99,,2013-03-30 04:33:00,
2013-03-30 00:43:00,36.0,28.0,29.91,North,355,0.0,-999.0,73,-99.99,,,-99.99,,2013-03-30 04:43:00,
2013-03-30 00:52:00,36.0,28.0,29.91,North,355,0.0,-999.0,73,-99.99,,,-99.99,,2013-03-30 04:52:00,
2013-03-30 01:02:00,36.0,29.0,29.91,North,355,0.0,-999.0,74,-99.99,,,-99.99,,2013-03-30 05:02:00,
2013-03-30 01:12:00,36.0,29.0,29.91,North,355,0.0,-999.0,74,-99.99,,,-99.99,,2013-03-30 05:12:00,
2013-03-30 01:22:00,36.0,29.0,29.91,North,355,0.0,-999.0,74,-99.99,,,-99.99,,2013-03-30 05:22:00,
2013-03-30 01:32:00,36.0,29.0,29.91,North,355,0.0,-999.0,75,-99.99,,,-99.99,,2013-03-30 05:32:00,
2013-03-30 01:42:00,36.0,29.0,29.91,North,355,0.0,-999.0,75,-99.99,,,-99.99,,2013-03-30 05:42:00,
2013-03-30 01:52:00,35.0,28.0,29.91,North,355,0.0,-999.0,76,-99.99,,,-99.99,,2013-03-30 05:52:00,
2013-03-30 02:02:00,35.0,29.0,29.91,North,355,0.0,-999.0,77,-99.99,,,-99.99,,2013-03-30 06:02:00,
2013-03-30 02:12:00,35.0,29.0,29.91,North,355,0.0,-999.0,77,-99.99,,,-99.99,,2013-03-30 06:12:00,
2013-03-30 02:23:00,35.0,29.0,29.91,North,355,0.0,-999.0,79,-99.99,,,-99.99,,2013-03-30 06:23:00,
2013-03-30 02:32:00,35.0,29.0,29.91,North,355,0.0,-999.0,79,-99.99,,,-99.99,,2013-03-30 06:32:00,
2013-03-30 02:42:00,35.0,29.0,29.91,North,355,0.0,-999.0,79,-99.99,,,-99.99,,2013-03-30 06:42:00,
2013-03-30 02:52:00,35.0,29.0,29.91,North,355,0.0,-999.0,80,-99.99,,,-99.99,,2013-03-30 06:52:00,
2013-03-30 03:02:00,35.0,29.0,29.91,North,355,0.0,-999.0,80,-99.99,,,-99.99,,2013-03-30 07:02:00,
2013-03-30 03:12:00,35.0,29.0,29.91,North,355,0.0,-999.0,80,-99.99,,,-99.99,,2013-03-30 07:12:00,
2013-03-30 03:22:00,35.0,29.0,29.91,North,355,0.0,-999.0,79,-99.99,,,-99.99,,2013-03-30 07:22:00,
2013-03-30 03:32:00,34.0,28.0,29.91,North,355,0.0,-999.0,80,-99.99,,,-99.99,,2013-03-30 07:32:00,
2013-03-30 03:42:00,34.0,28.0,29.91,North,355,0.0,-999.0,80,-99.99,,,-99.99,,2013-03-30 07:42:00,
2013-03-30 03:52:00,34.0,29.0,29.90,North,355,0.0,-999.0,81,-99.99,,,-99.99,,2013-03-30 07:52:00,
2013-03-30 04:02:00,34.0,29.0,29.90,North,355,0.0,-999.0,81,-99.99,,,-99.99,,2013-03-30 08:02:00,
2013-03-30 04:12:00,34.0,29.0,29.90,North,355,0.0,-999.0,81,-99.99,,,-99.99,,2013-03-30 08:12:00,
2013-03-30 04:22:00,34.0,29.0,29.91,North,355,0.0,-999.0,82,-99.99,,,-99.99,,2013-03-30 08:22:00,
2013-03-30 04:32:00,34.0,29.0,29.91,North,355,0.0,-999.0,82,-99.99,,,-99.99,,2013-03-30 08:32:00,
2013-03-30 04:42:00,34.0,29.0,29.91,North,355,0.0,-999.0,82,-99.99,,,-99.99,,2013-03-30 08:42:00,
2013-03-30 04:52:00,34.0,29.0,29.91,North,355,0.0,-999.0,82,-99.99,,,-99.99,,2013-03-30 08:52:00,
2013-03-30 05:02:00,34.0,29.0,29.91,North,355,0.0,-999.0,82,-99.99,,,-99.99,,2013-03-30 09:02:00,
2013-03-30 05:12:00,34.0,29.0,29.91,North,355,0.0,-999.0,82,-99.99,,,-99.99,,2013-03-30 09:12:00,
2013-03-30 05:22:00,34.0,29.0,29.91,North,355,0.0,-999.0,82,-99.99,,,-99.99,,2013-03-30 09:22:00,
2013-03-30 05:33:00,34.0,29.0,29.91,North,355,0.0,-999.0,83,-99.99,,,-99.99,,2013-03-30 09:33:00,
2013-03-30 05:43:00,34.0,29.0,29.91,North,355,0.0,-999.0,83,-99.99,,,-99.99,,2013-03-30 09:43:00,
2013-03-30 05:53:00,34.0,29.0,29.91,North,355,0.0,-999.0,83,-99.99,,,-99.99,,2013-03-30 09:53:00,
2013-03-30 06:03:00,34.0,30.0,29.91,North,355,0.0,-999.0,84,-99.99,,,-99.99,,2013-03-30 10:03:00,
2013-03-30 06:13:00,34.0,30.0,29.91,North,355,0.0,-999.0,84,-99.99,,,-99.99,,2013-03-30 10:13:00,
2013-03-30 06:23:00,34.0,30.0,29.92,North,355,0.0,-999.0,84,-99.99,,,-99.99,,2013-03-30 10:23:00,
2013-03-30 06:33:00,33.0,29.0,29.92,North,355,0.0,-999.0,84,-99.99,,,-99.99,,2013-03-30 10:33:00,
2013-03-30 06:42:00,33.0,29.0,29.92,North,355,0.0,-999.0,84,-99.99,,,-99.99,,2013-03-30 10:42:00,
2013-03-30 06:52:00,33.0,29.0,29.92,North,355,0.0,-999.0,85,-99.99,,,-99.99,,2013-03-30 10:52:00,
2013-03-30 07:04:00,33.0,29.0,29.93,North,355,0.0,-999.0,86,-99.99,,,-99.99,,2013-03-30 11:04:00,
2013-03-30 07:12:00,33.0,29.0,29.93,North,355,0.0,-999.0,86,-99.99,,,-99.99,,2013-03-30 11:12:00,
2013-03-30 07:22:00,34.0,30.0,29.93,North,355,0.0,-999.0,86,-99.99,,,-99.99,,2013-03-30 11:22:00,
2013-03-30 07:33:00,35.0,30.0,29.93,North,355,0.0,-999.0,83,-99.99,,,-99.99,,2013-03-30 11:33:00,
2013-03-30 07:42:00,35.0,30.0,29.93,North,355,0.0,-999.0,83,-99.99,,,-99.99,,2013-03-30 11:42:00,
2013-03-30 07:52:00,36.0,31.0,29.94,North,355,0.0,-999.0,81,-99.99,,,-99.99,,2013-03-30 11:52:00,
2013-03-30 08:02:00,39.0,32.0,29.94,North,355,0.0,-999.0,75,-99.99,,,-99.99,,2013-03-30 12:02:00,
2013-03-30 08:12:00,39.0,32.0,29.94,North,355,0.0,-999.0,75,-99.99,,,-99.99,,2013-03-30 12:12:00,
2013-03-30 08:22:00,40.0,32.0,29.94,NNW,341,0.0,-999.0,73,-99.99,,,-99.99,,2013-03-30 12:22:00,
2013-03-30 08:33:00,39.0,31.0,29.95,North,355,1.0,-999.0,74,-99.99,,,-99.99,,2013-03-30 12:33:00,
2013-03-30 08:42:00,39.0,31.0,29.95,North,355,1.0,-999.0,74,-99.99,,,-99.99,,2013-03-30 12:42:00,
2013-03-30 08:52:00,39.0,31.0,29.95,North,355,1.0,-999.0,72,-99.99,,,-99.99,,2013-03-30 12:52:00,
2013-03-30 09:02:00,40.0,31.0,29.95,North,351,1.0,-999.0,70,-99.99,,,-99.99,,2013-03-30 13:02:00,
2013-03-30 09:12:00,40.0,31.0,29.95,North,351,1.0,-999.0,70,-99.99,,,-99.99,,2013-03-30 13:12:00,
2013-03-30 09:22:00,41.0,31.0,29.95,North,360,0.0,-999.0,68,-99.99,,,-99.99,,2013-03-30 13:22:00,
2013-03-30 09:32:00,42.0,31.0,29.95,North,355,0.0,-999.0,66,-99.99,,,-99.99,,2013-03-30 13:32:00,
2013-03-30 09:43:00,42.0,31.0,29.95,North,355,0.0,-999.0,66,-99.99,,,-99.99,,2013-03-30 13:43:00,
2013-03-30 09:52:00,43.0,31.0,29.95,North,349,0.0,-999.0,62,-99.99,,,-99.99,,2013-03-30 13:52:00,
2013-03-30 10:03:00,45.0,32.0,29.95,NNW,334,1.0,-999.0,59,-99.99,,,-99.99,,2013-03-30 14:03:00,
2013-03-30 10:12:00,45.0,32.0,29.95,NNW,334,1.0,-999.0,59,-99.99,,,-99.99,,2013-03-30 14:12:00,
2013-03-30 10:23:00,46.0,31.0,29.95,North,355,1.0,-999.0,55,-99.99,,,-99.99,,2013-03-30 14:23:00,
2013-03-30 10:32:00,48.0,31.0,29.94,ENE,58,0.0,-999.0,51,-99.99,,,-99.99,,2013-03-30 14:32:00,
2013-03-30 10:42:00,48.0,31.0,29.94,ENE,58,0.0,-999.0,51,-99.99,,,-99.99,,2013-03-30 14:42:00,
2013-03-30 10:52:00,48.0,31.0,29.94,ENE,58,0.0,-999.0,51,-99.99,,,-99.99,,2013-03-30 14:52:00,
2013-03-30 11:03:00,49.0,30.0,29.94,North,350,1.0,-999.0,48,-99.99,,,-99.99,,2013-03-30 15:03:00,
2013-03-30 11:12:00,49.0,30.0,29.94,North,350,1.0,-999.0,48,-99.99,,,-99.99,,2013-03-30 15:12:00,
2013-03-30 11:23:00,51.0,28.0,29.93,NE,37,1.0,-999.0,40,-99.99,,,-99.99,,2013-03-30 15:23:00,
2013-03-30 11:34:00,51.0,24.0,29.93,North,350,2.0,-999.0,35,-99.99,,,-99.99,,2013-03-30 15:34:00,
2013-03-30 11:43:00,51.0,24.0,29.93,North,350,2.0,-999.0,35,-99.99,,,-99.99,,2013-03-30 15:43:00,
2013-03-30 11:52:00,52.0,27.0,29.92,SSW,203,1.0,-999.0,38,-99.99,,,-99.99,,2013-03-30 15:52:00,
2013-03-30 12:03:00,53.0,23.0,29.92,NNE,28,1.0,-999.0,31,-99.99,,,-99.99,,2013-03-30 16:03:00,
2013-03-30 12:13:00,54.0,22.0,29.92,NE,50,2.0,-999.0,29,-99.99,,,-99.99,,2013-03-30 16:13:00,
2013-03-30 12:23:00,54.0,22.0,29.92,NE,50,2.0,-999.0,29,-99.99,,,-99.99,,2013-03-30 16:23:00,
2013-03-30 12:33:00,55.0,21.0,29.92,NNW,348,1.0,-999.0,26,-99.99,,,-99.99,,2013-03-30 16:33:00,
2013-03-30 12:43:00,55.0,21.0,29.92,NNW,348,1.0,-999.0,26,-99.99,,,-99.99,,2013-03-30 16:43:00,
2013-03-30 12:52:00,54.0,20.0,29.91,NNW,345,2.0,-999.0,26,-99.99,,,-99.99,,2013-03-30 16:52:00,
2013-03-30 13:02:00,55.0,19.0,29.91,West,278,1.0,-999.0,24,-99.99,,,-99.99,,2013-03-30 17:02:00,
2013-03-30 13:13:00,55.0,19.0,29.91,West,278,1.0,-999.0,24,-99.99,,,-99.99,,2013-03-30 17:13:00,
2013-03-30 13:23:00,55.0,21.0,29.90,WNW,284,1.0,-999.0,26,-99.99,,,-99.99,,2013-03-30 17:23:00,
2013-03-30 13:33:00,55.0,21.0,29.90,North,10,2.0,-999.0,26,-99.99,,,-99.99,,2013-03-30 17:33:00,
2013-03-30 13:42:00,55.0,21.0,29.90,North,10,2.0,-999.0,26,-99.99,,,-99.99,,2013-03-30 17:42:00,
2013-03-30 13:52:00,56.0,20.0,29.90,NNE,31,1.0,-999.0,24,-99.99,,,-99.99,,2013-03-30 17:52:00,
2013-03-30 14:03:00,56.0,21.0,29.89,WNW,292,1.0,-999.0,25,-99.99,,,-99.99,,2013-03-30 18:03:00,
2013-03-30 14:12:00,56.0,18.0,29.89,ESE,105,1.0,-999.0,22,-99.99,,,-99.99,,2013-03-30 18:12:00,
2013-03-30 14:22:00,56.0,18.0,29.89,ESE,105,1.0,-999.0,22,-99.99,,,-99.99,,2013-03-30 18:22:00,
2013-03-30 14:33:00,57.0,19.0,29.88,NW,324,2.0,-999.0,22,-99.99,,,-99.99,,2013-03-30 18:33:00,
2013-03-30 14:42:00,57.0,19.0,29.88,NW,324,2.0,-999.0,22,-99.99,,,-99.99,,2013-03-30 18:42:00,
2013-03-30 14:53:00,57.0,16.0,29.88,North,360,1.0,-999.0,20,-99.99,,,-99.99,,2013-03-30 18:53:00,
2013-03-30 15:03:00,57.0,20.0,29.88,NNE,22,2.0,-999.0,23,-99.99,,,-99.99,,2013-03-30 19:03:00,
2013-03-30 15:13:00,57.0,20.0,29.88,NNE,22,2.0,-999.0,23,-99.99,,,-99.99,,2013-03-30 19:13:00,
2013-03-30 15:22:00,57.0,17.0,29.88,East,86,1.0,-999.0,21,-99.99,,,-99.99,,2013-03-30 19:22:00,
2013-03-30 15:32:00,57.0,17.0,29.88,NNE,24,2.0,-999.0,21,-99.99,,,-99.99,,2013-03-30 19:32:00,
2013-03-30 15:42:00,57.0,17.0,29.88,NNE,24,2.0,-999.0,21,-99.99,,,-99.99,,2013-03-30 19:42:00,
2013-03-30 15:52:00,57.0,16.0,29.88,NW,316,1.0,-999.0,20,-99.99,,,-99.99,,2013-03-30 19:52:00,
2013-03-30 16:02:00,57.0,16.0,29.88,NW,316,1.0,-999.0,20,-99.99,,,-99.99,,2013-03-30 20:02:00,
2013-03-30 16:12:00,57.0,16.0,29.88,NW,316,1.0,-999.0,20,-99.99,,,-99.99,,2013-03-30 20:12:00,
2013-03-30 16:22:00,57.0,16.0,29.88,East,88,1.0,-999.0,20,-99.99,,,-99.99,,2013-03-30 20:22:00,
2013-03-30 16:33:00,57.0,16.0,29.88,West,281,1.0,-999.0,20,-99.99,,,-99.99,,2013-03-30 20:33:00,
2013-03-30 16:43:00,57.0,16.0,29.88,West,281,1.0,-999.0,20,-99.99,,,-99.99,,2013-03-30 20:43:00,
2013-03-30 16:52:00,56.0,17.0,29.88,NNW,328,1.0,-999.0,21,-99.99,,,-99.99,,2013-03-30 20:52:00,
2013-03-30 17:03:00,56.0,23.0,29.88,North,349,1.0,-999.0,27,-99.99,,,-99.99,,2013-03-30 21:03:00,
2013-03-30 17:12:00,56.0,23.0,29.88,North,349,1.0,-999.0,27,-99.99,,,-99.99,,2013-03-30 21:12:00,
2013-03-30 17:23:00,54.0,26.0,29.88,SW,215,2.0,-999.0,33,-99.99,,,-99.99,,2013-03-30 21:23:00,
2013-03-30 17:34:00,53.0,27.0,29.89,East,83,1.0,-999.0,36,-99.99,,,-99.99,,2013-03-30 21:34:00,
2013-03-30 17:43:00,53.0,27.0,29.89,East,83,1.0,-999.0,36,-99.99,,,-99.99,,2013-03-30 21:43:00,
2013-03-30 17:53:00,51.0,25.0,29.89,ENE,70,1.0,-999.0,36,-99.99,,,-99.99,,2013-03-30 21:53:00,
2013-03-30 18:03:00,50.0,25.0,29.90,SSW,209,1.0,-999.0,38,-99.99,,,-99.99,,2013-03-30 22:03:00,
2013-03-30 18:13:00,50.0,25.0,29.90,SSW,209,1.0,-999.0,38,-99.99,,,-99.99,,2013-03-30 22:13:00,
2013-03-30 18:23:00,49.0,27.0,29.90,West,261,2.0,-999.0,42,-99.99,,,-99.99,,2013-03-30 22:23:00,
2013-03-30 18:33:00,48.0,27.0,29.91,WSW,255,1.0,-999.0,44,-99.99,,,-99.99,,2013-03-30 22:33:00,
2013-03-30 18:43:00,48.0,27.0,29.91,WSW,255,1.0,-999.0,44,-99.99,,,-99.99,,2013-03-30 22:43:00,
2013-03-30 18:53:00,47.0,27.0,29.92,West,269,1.0,-999.0,45,-99.99,,,-99.99,,2013-03-30 22:53:00,
2013-03-30 19:03:00,46.0,28.0,29.92,NW,306,0.0,-999.0,49,-99.99,,,-99.99,,2013-03-30 23:03:00,
2013-03-30 19:12:00,46.0,28.0,29.92,NW,306,0.0,-999.0,49,-99.99,,,-99.99,,2013-03-30 23:12:00,
2013-03-30 19:22:00,44.0,28.0,29.93,WSW,258,1.0,-999.0,53,-99.99,,,-99.99,,2013-03-30 23:22:00,
2013-03-30 19:33:00,43.0,28.0,29.93,WSW,258,0.0,-999.0,55,-99.99,,,-99.99,,2013-03-30 23:33:00,
2013-03-30 19:42:00,43.0,28.0,29.93,WSW,258,0.0,-999.0,55,-99.99,,,-99.99,,2013-03-30 23:42:00,
2013-03-30 19:52:00,42.0,29.0,29.93,WSW,258,0.0,-999.0,60,-99.99,,,-99.99,,2013-03-30 23:52:00,
2013-03-30 20:03:00,41.0,29.0,29.94,West,281,0.0,-999.0,62,-99.99,,,-99.99,,2013-03-31 00:03:00,
2013-03-30 20:12:00,41.0,29.0,29.94,West,281,0.0,-999.0,62,-99.99,,,-99.99,,2013-03-31 00:12:00,
2013-03-30 20:22:00,41.0,30.0,29.95,WNW,284,1.0,-999.0,64,-99.99,,,-99.99,,2013-03-31 00:22:00,
2013-03-30 20:32:00,40.0,30.0,29.95,West,281,0.0,-999.0,66,-99.99,,,-99.99,,2013-03-31 00:32:00,
2013-03-30 20:42:00,40.0,30.0,29.95,West,281,0.0,-999.0,66,-99.99,,,-99.99,,2013-03-31 00:42:00,
2013-03-30 20:52:00,40.0,30.0,29.96,West,277,0.0,-999.0,68,-99.99,,,-99.99,,2013-03-31 00:52:00,
2013-03-30 21:02:00,40.0,30.0,29.96,West,277,0.0,-999.0,68,-99.99,,,-99.99,,2013-03-31 01:02:00,
2013-03-30 21:12:00,40.0,30.0,29.96,West,277,0.0,-999.0,68,-99.99,,,-99.99,,2013-03-31 01:12:00,
2013-03-30 21:22:00,38.0,29.0,29.96,West,277,0.0,-999.0,71,-99.99,,,-99.99,,2013-03-31 01:22:00,
2013-03-30 21:32:00,38.0,30.0,29.97,West,277,0.0,-999.0,72,-99.99,,,-99.99,,2013-03-31 01:32:00,
2013-03-30 21:43:00,38.0,30.0,29.97,West,277,0.0,-999.0,72,-99.99,,,-99.99,,2013-03-31 01:43:00,
2013-03-30 21:52:00,37.0,29.0,29.97,West,277,0.0,-999.0,74,-99.99,,,-99.99,,2013-03-31 01:52:00,
2013-03-30 22:02:00,37.0,30.0,29.98,West,277,0.0,-999.0,76,-99.99,,,-99.99,,2013-03-31 02:02:00,
2013-03-30 22:13:00,37.0,30.0,29.98,West,277,0.0,-999.0,76,-99.99,,,-99.99,,2013-03-31 02:13:00,
2013-03-30 22:22:00,37.0,30.0,29.98,West,277,0.0,-999.0,75,-99.99,,,-99.99,,2013-03-31 02:22:00,
2013-03-30 22:32:00,36.0,29.0,29.98,West,277,0.0,-999.0,74,-99.99,,,-99.99,,2013-03-31 02:32:00,
2013-03-30 22:43:00,36.0,29.0,29.98,West,277,0.0,-999.0,74,-99.99,,,-99.99,,2013-03-31 02:43:00,
2013-03-30 22:52:00,36.0,28.0,29.98,West,277,0.0,-999.0,73,-99.99,,,-99.99,,2013-03-31 02:52:00,
2013-03-30 23:02:00,36.0,29.0,29.98,West,277,0.0,-999.0,74,-99.99,,,-99.99,,2013-03-31 03:02:00,
2013-03-30 23:13:00,36.0,29.0,29.98,West,277,0.0,-999.0,74,-99.99,,,-99.99,,2013-03-31 03:13:00,
2013-03-30 23:22:00,35.0,27.0,29.98,West,277,0.0,-999.0,73,-99.99,,,-99.99,,2013-03-31 03:22:00,
2013-03-30 23:33:00,35.0,27.0,29.98,West,277,0.0,-999.0,72,-99.99,,,-99.99,,2013-03-31 03:33:00,
2013-03-30 23:43:00,35.0,27.0,29.98,West,277,0.0,-999.0,72,-99.99,,,-99.99,,2013-03-31 03:43:00,
2013-03-30 23:53:00,35.0,26.0,29.99,West,277,0.0,-999.0,70,-99.99,,,-99.99,,2013-03-31 03:53:00,